Time,TemperatureF,DewpointF,PressureIn,WindDirection,WindDirectionDegrees,WindSpeedMPH,WindSpeedGustMPH,Humidity,HourlyPrecipIn,Conditions,Clouds,dailyrainin,SoftwareType,DateUTC
2017-12-10 00:20:00,29.7,27.4,30.71,WNW,292,0.0,0.0,91,0.00,,,0.00,Wunderground v.1.15,2017-12-10 08:20:00,
2017-12-10 00:30:00,29.7,27.4,30.71,WNW,292,0.0,0.0,91,0.00,,,0.00,Wunderground v.1.15,2017-12-10 08:30:00,
2017-12-10 00:40:00,29.8,27.8,30.72,WNW,292,0.0,0.0,92,0.00,,,0.00,Wunderground v.1.15,2017-12-10 08:40:00,
2017-12-10 00:50:00,29.7,27.7,30.71,WNW,292,0.0,0.0,92,0.00,,,0.00,Wunderground v.1.15,2017-12-10 08:50:00,
2017-12-10 01:00:00,29.7,27.7,30.71,WNW,292,0.0,0.0,92,0.00,,,0.00,Wunderground v.1.15,2017-12-10 09:00:00,
2017-12-10 01:10:00,29.7,27.7,30.71,WNW,292,0.0,1.0,92,0.00,,,0.00,Wunderground v.1.15,2017-12-10 09:10:00,
2017-12-10 01:20:00,29.6,27.6,30.71,WNW,293,0.0,1.0,92,0.00,,,0.00,Wunderground v.1.15,2017-12-10 09:20:00,
2017-12-10 01:30:00,29.6,27.8,30.70,WNW,293,0.0,1.0,93,0.00,,,0.00,Wunderground v.1.15,2017-12-10 09:30:00,
2017-12-10 01:45:00,29.6,27.8,30.70,WNW,294,0.0,1.0,93,0.00,,,0.00,Wunderground v.1.15,2017-12-10 09:45:00,
2017-12-10 01:50:00,29.5,27.7,30.71,WNW,294,0.0,1.0,93,0.00,,,0.00,Wunderground v.1.15,2017-12-10 09:50:00,
2017-12-10 02:10:00,29.5,27.7,30.70,WNW,294,0.0,0.0,93,0.00,,,0.00,Wunderground v.1.15,2017-12-10 10:10:00,
2017-12-10 02:20:00,29.5,27.7,30.70,WNW,294,0.0,0.0,93,0.00,,,0.00,Wunderground v.1.15,2017-12-10 10:20:00,
2017-12-10 02:35:00,29.5,27.7,30.70,WNW,294,0.0,0.0,93,0.00,,,0.00,Wunderground v.1.15,2017-12-10 10:35:00,
2017-12-10 02:45:00,29.5,27.7,30.70,WNW,294,0.0,0.0,93,0.00,,,0.00,Wunderground v.1.15,2017-12-10 10:45:00,
2017-12-10 02:50:00,29.4,27.6,30.70,WNW,294,0.0,0.0,93,0.00,,,0.00,Wunderground v.1.15,2017-12-10 10:50:00,
2017-12-10 03:00:00,29.4,27.6,30.70,WNW,302,0.0,0.0,93,0.00,,,0.00,Wunderground v.1.15,2017-12-10 11:00:00,
2017-12-10 03:20:00,29.4,27.6,30.71,NW,304,0.0,1.0,93,0.00,,,0.00,Wunderground v.1.15,2017-12-10 11:20:00,
2017-12-10 03:45:00,29.3,27.5,30.70,NW,304,0.0,1.0,93,0.00,,,0.00,Wunderground v.1.15,2017-12-10 11:45:00,
2017-12-10 03:55:00,29.3,27.5,30.70,NW,304,0.0,1.0,93,0.00,,,0.00,Wunderground v.1.15,2017-12-10 11:55:00,
2017-12-10 04:00:00,29.4,27.6,30.71,NW,304,0.0,1.0,93,0.00,,,0.00,Wunderground v.1.15,2017-12-10 12:00:00,
2017-12-10 04:20:00,29.3,27.5,30.71,WNW,284,0.0,1.0,93,0.00,,,0.00,Wunderground v.1.15,2017-12-10 12:20:00,
2017-12-10 04:30:00,29.3,27.5,30.71,WNW,299,1.0,1.0,93,0.00,,,0.00,Wunderground v.1.15,2017-12-10 12:30:00,
2017-12-10 04:40:00,29.3,27.5,30.71,WNW,300,0.0,0.0,93,0.00,,,0.00,Wunderground v.1.15,2017-12-10 12:40:00,
2017-12-10 04:50:00,29.3,27.5,30.70,WNW,299,0.0,0.0,93,0.00,,,0.00,Wunderground v.1.15,2017-12-10 12:50:00,
2017-12-10 05:00:00,29.2,27.4,30.70,WNW,299,0.0,0.0,93,0.00,,,0.00,Wunderground v.1.15,2017-12-10 13:00:00,
2017-12-10 05:15:00,29.2,27.4,30.70,WNW,300,0.0,3.0,93,0.00,,,0.00,Wunderground v.1.15,2017-12-10 13:15:00,
2017-12-10 05:25:00,29.2,27.2,30.70,WNW,300,0.0,3.0,92,0.00,,,0.00,Wunderground v.1.15,2017-12-10 13:25:00,
2017-12-10 05:35:00,29.3,27.3,30.70,WNW,300,0.0,3.0,92,0.00,,,0.00,Wunderground v.1.15,2017-12-10 13:35:00,
2017-12-10 05:45:00,29.4,27.6,30.71,NW,309,0.0,3.0,93,0.00,,,0.00,Wunderground v.1.15,2017-12-10 13:45:00,
2017-12-10 05:50:00,29.4,27.6,30.71,NW,309,0.0,3.0,93,0.00,,,0.00,Wunderground v.1.15,2017-12-10 13:50:00,
2017-12-10 06:00:00,29.2,27.4,30.71,NW,308,0.0,3.0,93,0.00,,,0.00,Wunderground v.1.15,2017-12-10 14:00:00,
2017-12-10 06:10:00,29.2,27.4,30.72,NW,308,0.0,0.0,93,0.00,,,0.00,Wunderground v.1.15,2017-12-10 14:10:00,
2017-12-10 06:20:00,29.2,27.4,30.72,NW,308,0.0,0.0,93,0.00,,,0.00,Wunderground v.1.15,2017-12-10 14:20:00,
2017-12-10 06:30:00,29.2,27.4,30.72,NW,308,0.0,0.0,93,0.00,,,0.00,Wunderground v.1.15,2017-12-10 14:30:00,
2017-12-10 06:35:00,29.2,27.4,30.72,NW,307,0.0,0.0,93,0.00,,,0.00,Wunderground v.1.15,2017-12-10 14:35:00,
2017-12-10 06:45:00,29.2,27.4,30.72,NW,309,0.0,0.0,93,0.00,,,0.00,Wunderground v.1.15,2017-12-10 14:45:00,
2017-12-10 07:00:00,29.2,27.4,30.72,NW,310,0.0,0.0,93,0.00,,,0.00,Wunderground v.1.15,2017-12-10 15:00:00,
2017-12-10 07:10:00,29.1,27.3,30.72,NW,310,0.0,3.0,93,0.00,,,0.00,Wunderground v.1.15,2017-12-10 15:10:00,
2017-12-10 07:20:00,29.1,27.3,30.72,NW,310,0.0,3.0,93,0.00,,,0.00,Wunderground v.1.15,2017-12-10 15:20:00,
2017-12-10 07:35:00,29.1,27.3,30.73,NW,312,0.0,3.0,93,0.00,,,0.00,Wunderground v.1.15,2017-12-10 15:35:00,
2017-12-10 07:40:00,29.2,27.4,30.73,NW,311,0.0,3.0,93,0.00,,,0.00,Wunderground v.1.15,2017-12-10 15:40:00,
2017-12-10 08:10:00,29.2,27.4,30.72,NW,311,0.0,0.0,93,0.00,,,0.00,Wunderground v.1.15,2017-12-10 16:10:00,
2017-12-10 08:30:00,29.4,27.6,30.72,NW,311,0.0,0.0,93,0.00,,,0.00,Wunderground v.1.15,2017-12-10 16:30:00,
2017-12-10 08:40:00,29.4,27.6,30.72,NW,311,0.0,0.0,93,0.00,,,0.00,Wunderground v.1.15,2017-12-10 16:40:00,
2017-12-10 08:45:00,29.5,27.7,30.72,NW,311,0.0,0.0,93,0.00,,,0.00,Wunderground v.1.15,2017-12-10 16:45:00,
2017-12-10 09:00:00,29.6,27.8,30.72,NW,314,0.0,0.0,93,0.00,,,0.00,Wunderground v.1.15,2017-12-10 17:00:00,
2017-12-10 09:10:00,29.7,27.9,30.72,NW,314,0.0,2.0,93,0.00,,,0.00,Wunderground v.1.15,2017-12-10 17:10:00,
2017-12-10 09:20:00,29.9,28.1,30.72,NW,315,0.0,2.0,93,0.00,,,0.00,Wunderground v.1.15,2017-12-10 17:20:00,
2017-12-10 09:30:00,29.9,28.1,30.72,NW,315,0.0,2.0,93,0.00,,,0.00,Wunderground v.1.15,2017-12-10 17:30:00,
2017-12-10 09:35:00,29.9,27.9,30.72,NW,315,0.0,2.0,92,0.00,,,0.00,Wunderground v.1.15,2017-12-10 17:35:00,
2017-12-10 09:45:00,30.0,28.2,30.72,NW,315,0.0,2.0,93,0.00,,,0.00,Wunderground v.1.15,2017-12-10 17:45:00,
2017-12-10 09:50:00,30.0,28.0,30.72,NW,315,0.0,2.0,92,0.00,,,0.00,Wunderground v.1.15,2017-12-10 17:50:00,
2017-12-10 10:10:00,30.5,28.5,30.73,NW,315,0.0,0.0,92,0.00,,,0.00,Wunderground v.1.15,2017-12-10 18:10:00,
2017-12-10 10:20:00,30.6,28.3,30.72,NW,314,0.0,0.0,91,0.00,,,0.00,Wunderground v.1.15,2017-12-10 18:20:00,
2017-12-10 10:25:00,30.7,28.4,30.72,NW,315,0.0,0.0,91,0.00,,,0.00,Wunderground v.1.15,2017-12-10 18:25:00,
2017-12-10 10:35:00,30.9,28.3,30.71,NW,314,0.0,0.0,90,0.00,,,0.00,Wunderground v.1.15,2017-12-10 18:35:00,
2017-12-10 10:45:00,31.0,28.4,30.71,NW,314,0.0,0.0,90,0.00,,,0.00,Wunderground v.1.15,2017-12-10 18:45:00,
2017-12-10 11:00:00,31.2,28.3,30.71,NW,317,0.0,0.0,89,0.00,,,0.00,Wunderground v.1.15,2017-12-10 19:00:00,
2017-12-10 11:20:00,31.3,28.2,30.70,NW,321,0.0,2.0,88,0.00,,,0.00,Wunderground v.1.15,2017-12-10 19:20:00,
2017-12-10 11:25:00,31.3,28.2,30.70,NW,321,1.0,2.0,88,0.00,,,0.00,Wunderground v.1.15,2017-12-10 19:25:00,
2017-12-10 11:35:00,31.3,28.2,30.70,NW,322,0.0,2.0,88,0.00,,,0.00,Wunderground v.1.15,2017-12-10 19:35:00,
2017-12-10 11:40:00,31.3,28.4,30.70,NW,322,1.0,1.0,89,0.00,,,0.00,Wunderground v.1.15,2017-12-10 19:40:00,
2017-12-10 11:50:00,31.2,28.3,30.70,NNW,334,1.0,2.0,89,0.00,,,0.00,Wunderground v.1.15,2017-12-10 19:50:00,
2017-12-10 12:00:00,31.4,28.5,30.69,NNW,338,1.0,1.0,89,0.00,,,0.00,Wunderground v.1.15,2017-12-10 20:00:00,
2017-12-10 12:10:00,31.4,28.5,30.69,NNW,338,0.0,0.0,89,0.00,,,0.00,Wunderground v.1.15,2017-12-10 20:10:00,
2017-12-10 12:20:00,31.4,28.5,30.68,NNW,338,0.0,0.0,89,0.00,,,0.00,Wunderground v.1.15,2017-12-10 20:20:00,
2017-12-10 12:30:00,31.3,28.2,30.68,NNW,338,0.0,0.0,88,0.00,,,0.00,Wunderground v.1.15,2017-12-10 20:30:00,
2017-12-10 12:40:00,31.4,28.0,30.68,NNW,338,0.0,0.0,87,0.00,,,0.00,Wunderground v.1.15,2017-12-10 20:40:00,
2017-12-10 12:45:00,31.5,28.1,30.67,NNW,338,0.0,0.0,87,0.00,,,0.00,Wunderground v.1.15,2017-12-10 20:45:00,
2017-12-10 12:55:00,31.6,27.9,30.66,NNW,338,0.0,0.0,86,0.00,,,0.00,Wunderground v.1.15,2017-12-10 20:55:00,
2017-12-10 13:05:00,31.7,28.0,30.66,NNW,338,0.0,4.0,86,0.00,,,0.00,Wunderground v.1.15,2017-12-10 21:05:00,
2017-12-10 13:15:00,31.7,28.0,30.66,NNW,338,0.0,4.0,86,0.00,,,0.00,Wunderground v.1.15,2017-12-10 21:15:00,
2017-12-10 13:25:00,31.6,27.9,30.65,North,349,1.0,4.0,86,0.00,,,0.00,Wunderground v.1.15,2017-12-10 21:25:00,
2017-12-10 13:45:00,31.8,28.1,30.65,North,349,0.0,4.0,86,0.00,,,0.00,Wunderground v.1.15,2017-12-10 21:45:00,
2017-12-10 14:00:00,31.6,27.3,30.64,ENE,67,2.0,4.0,84,0.00,,,0.00,Wunderground v.1.15,2017-12-10 22:00:00,
2017-12-10 14:10:00,31.6,27.3,30.65,NE,55,3.0,3.0,84,0.00,,,0.00,Wunderground v.1.15,2017-12-10 22:10:00,
2017-12-10 14:20:00,31.6,27.3,30.65,ENE,60,2.0,2.0,84,0.00,,,0.00,Wunderground v.1.15,2017-12-10 22:20:00,
2017-12-10 14:30:00,31.5,26.9,30.65,ENE,61,1.0,2.0,83,0.00,,,0.00,Wunderground v.1.15,2017-12-10 22:30:00,
2017-12-10 14:35:00,31.3,26.7,30.65,NE,55,2.0,3.0,83,0.00,,,0.00,Wunderground v.1.15,2017-12-10 22:35:00,
2017-12-10 14:45:00,31.0,26.7,30.65,ENE,67,2.0,3.0,84,0.00,,,0.00,Wunderground v.1.15,2017-12-10 22:45:00,
2017-12-10 14:55:00,30.9,26.6,30.65,ENE,74,2.0,4.0,84,0.00,,,0.00,Wunderground v.1.15,2017-12-10 22:55:00,
2017-12-10 15:00:00,30.8,26.5,30.64,ENE,66,3.0,3.0,84,0.00,,,0.00,Wunderground v.1.15,2017-12-10 23:00:00,
2017-12-10 15:10:00,30.8,26.5,30.65,ENE,64,2.0,2.0,84,0.00,,,0.00,Wunderground v.1.15,2017-12-10 23:10:00,
2017-12-10 15:20:00,30.8,26.8,30.64,NE,51,2.0,2.0,85,0.00,,,0.00,Wunderground v.1.15,2017-12-10 23:20:00,
2017-12-10 15:30:00,30.8,26.5,30.65,NE,52,2.0,2.0,84,0.00,,,0.00,Wunderground v.1.15,2017-12-10 23:30:00,
2017-12-10 15:40:00,30.9,26.6,30.65,ENE,61,1.0,5.0,84,0.00,,,0.00,Wunderground v.1.15,2017-12-10 23:40:00,
2017-12-10 15:50:00,30.8,26.8,30.65,NE,53,3.0,3.0,85,0.00,,,0.00,Wunderground v.1.15,2017-12-10 23:50:00,
2017-12-10 16:15:00,30.7,26.4,30.65,NE,55,2.0,2.0,84,0.00,,,0.00,Wunderground v.1.15,2017-12-11 00:15:00,
2017-12-10 16:25:00,30.7,26.7,30.66,ENE,61,2.0,3.0,85,0.00,,,0.00,Wunderground v.1.15,2017-12-11 00:25:00,
2017-12-10 16:35:00,30.6,26.3,30.66,NE,49,3.0,3.0,84,0.00,,,0.00,Wunderground v.1.15,2017-12-11 00:35:00,
2017-12-10 16:45:00,30.6,26.3,30.66,ENE,68,3.0,3.0,84,0.00,,,0.00,Wunderground v.1.15,2017-12-11 00:45:00,